Hourly Data Report for July 14, 2021

WRIGLEY A
NORTHWEST TERRITORIES
Current Station Operator: NAVCAN

63°12'35.000" N
123°26'12.000" W
149.70 m
2204005
YWY

Download Data

Hourly Data (July 2021)
Hourly Data Report for July 14, 2021
TIME
LST
Temp Definition
°C
Dew Point Definition
°C
Rel Hum Definition
%
Precip. Amount Definition
mm

Wind Dir Definition
10's deg

Wind Spd Definition
km/h
Visibility Definition
km
Stn Press Definition
kPa
Hmdx Definition


Wind Chill Definition


Weather Definition


00:00 20.4 14.6 69 LegendMM 33 6 LegendMM 98.66     LegendNANA
01:00 18.9 14.9 78 LegendMM 30 2 LegendMM 98.63     LegendNANA
02:00 17.4 14.0 81 LegendMM 35 3 LegendMM 98.59     LegendNANA
03:00 17.1 13.4 79 LegendMM 0 1 LegendMM 98.57     LegendNANA
04:00 17.3 12.0 71 LegendMM 35 5 LegendMM 98.56     LegendNANA
05:00 16.5 12.0 74 LegendMM 35 4 LegendMM 98.55     LegendNANA
06:00 16.9 11.5 71 LegendMM 33 4 LegendMM 98.54     LegendNANA
07:00 18.7 12.0 65 LegendMM 1 4 LegendMM 98.50     LegendNANA
08:00 18.9 11.8 63 LegendMM 33 3 LegendMM 98.45     LegendNANA
09:00 19.4 12.1 62 LegendMM 30 6 LegendMM 98.40     LegendNANA
10:00 21.8 11.5 52 LegendMM 31 6 LegendMM 98.32     LegendNANA
11:00 23.0 11.2 47 LegendMM 30 10 LegendMM 98.27 25   LegendNANA
12:00 24.6 13.2 49 LegendMM 29 6 LegendMM 98.22 28   LegendNANA
13:00 25.8 13.2 45 LegendMM 28 9 LegendMM 98.15 29   LegendNANA
14:00 27.3 12.1 38 LegendMM 26 8 LegendMM 98.09 30   LegendNANA
15:00 26.1 12.3 42 LegendMM 30 8 LegendMM 98.05 29   LegendNANA
16:00 22.4 13.8 58 LegendMM 30 33 LegendMM 98.06 26   LegendNANA
17:00 20.9 12.7 59 LegendMM 31 9 LegendMM 98.17     LegendNANA
18:00 21.3 14.1 63 LegendMM 31 5 LegendMM 98.17 25   LegendNANA
19:00 19.9 11.5 58 LegendMM 4 9 LegendMM 98.22     LegendNANA
20:00 17.9 10.9 63 LegendMM 1 9 LegendMM 98.38     LegendNANA
21:00 16.1 10.7 70 LegendMM 31 22 LegendMM 98.56     LegendNANA
22:00 12.9 10.4 85 LegendMM 31 18 LegendMM 98.71     LegendNANA
23:00 11.6 9.7 88 LegendMM 31 16 LegendMM 98.81     LegendNANA

Notes on Data Quality.

Legend

  • E = Estimated
  • M = Missing
  • NA = Not Available*
  • [empty] = Indicates an unobserved value
Date modified: